| time (UTC) | temp F | wind direction | speed MPH | gust MPH | rain 1hr in | rain 24hr in | rain mn in | humidity % | barometer mb |
| 20260507021540 | 69 | 321 | 4.0 | 9.0 | 0.00 | 0.00 | 0.00 | 58 | 1015.6 |
| 20260507020036 | 70 | 283 | 5.0 | 8.0 | 0.00 | 0.00 | 0.00 | 58 | 1015.5 |
| 20260507014547 | 72 | 253 | 3.0 | 6.0 | 0.00 | 0.00 | 0.00 | 59 | 1015.4 |
| 20260507013040 | 72 | 240 | 0.0 | 3.0 | 0.00 | 0.00 | 0.00 | 61 | 1015.3 |
| 20260507011544 | 72 | 0 | 0.0 | 5.0 | 0.00 | 0.00 | 0.00 | 59 | 1015.2 |
| 20260507010041 | 72 | 231 | 1.0 | 9.0 | 0.00 | 0.00 | 0.00 | 59 | 1015.1 |
| 20260507004536 | 72 | 236 | 1.0 | 8.0 | 0.00 | 0.00 | 0.00 | 59 | 1015.1 |
| 20260507003039 | 74 | 240 | 1.0 | 4.0 | 0.00 | 0.00 | 0.00 | 52 | 1015.1 |
| 20260507001538 | 74 | 0 | 0.0 | 3.0 | 0.00 | 0.00 | 0.00 | 52 | 1015.0 |
| 20260507000036 | 74 | 247 | 2.0 | 6.0 | 0.00 | 0.00 | 0.00 | 55 | 1015.1 |
| 20260506234545 | 73 | 184 | 1.0 | 9.0 | 0.00 | 0.00 | 0.00 | 53 | 1015.1 |
| 20260506233046 | 73 | 139 | 3.0 | 10.0 | 0.00 | 0.00 | 0.00 | 54 | 1015.1 |
| 20260506231536 | 73 | 196 | 3.0 | 10.0 | 0.00 | 0.00 | 0.00 | 53 | 1015.3 |
| 20260506230035 | 74 | 262 | 4.0 | 11.0 | 0.00 | 0.00 | 0.00 | 52 | 1015.4 |
| 20260506224540 | 73 | 243 | 5.0 | 14.0 | 0.00 | 0.00 | 0.00 | 51 | 1015.7 |
| 20260506223035 | 74 | 174 | 2.0 | 9.0 | 0.00 | 0.00 | 0.00 | 52 | 1015.9 |
| 20260506221538 | 74 | 248 | 1.0 | 10.0 | 0.00 | 0.00 | 0.00 | 52 | 1016.0 |
| 20260506220037 | 74 | 225 | 2.0 | 12.0 | 0.00 | 0.00 | 0.00 | 51 | 1016.2 |
| 20260506214537 | 74 | 182 | 3.0 | 9.0 | 0.00 | 0.00 | 0.00 | 48 | 1016.4 |
| 20260506213038 | 75 | 181 | 3.0 | 8.0 | 0.00 | 0.00 | 0.00 | 46 | 1016.5 |
| 20260506211535 | 75 | 226 | 1.0 | 10.0 | 0.00 | 0.00 | 0.00 | 47 | 1016.6 |
| 20260506210038 | 74 | 200 | 4.0 | 11.0 | 0.00 | 0.00 | 0.00 | 50 | 1016.7 |
| 20260506204540 | 74 | 237 | 3.0 | 8.0 | 0.00 | 0.00 | 0.00 | 47 | 1016.8 |
| 20260506203040 | 76 | 262 | 2.0 | 6.0 | 0.00 | 0.00 | 0.00 | 46 | 1016.9 |
| 20260506201539 | 75 | 218 | 1.0 | 5.0 | 0.00 | 0.00 | 0.00 | 49 | 1017.1 |
| 20260506200040 | 75 | 240 | 2.0 | 5.0 | 0.00 | 0.00 | 0.00 | 47 | 1017.2 |
| 20260506194536 | 74 | 270 | 1.0 | 6.0 | 0.00 | 0.00 | 0.00 | 50 | 1017.4 |
| 20260506193033 | 72 | 235 | 2.0 | 8.0 | 0.00 | 0.00 | 0.00 | 51 | 1017.6 |
| 20260506191535 | 74 | 226 | 1.0 | 4.0 | 0.00 | 0.00 | 0.00 | 52 | 1017.7 |
| 20260506190039 | 72 | 260 | 1.0 | 7.0 | 0.00 | 0.00 | 0.00 | 55 | 1017.7 |
| 20260506184545 | 70 | 223 | 3.0 | 9.0 | 0.00 | 0.02 | 0.00 | 58 | 1017.9 |
| 20260506183034 | 69 | 0 | 2.0 | 8.0 | 0.00 | 0.02 | 0.00 | 61 | 1017.9 |
| 20260506181538 | 69 | 198 | 1.0 | 11.0 | 0.00 | 0.02 | 0.00 | 62 | 1018.0 |
| 20260506180038 | 71 | 229 | 1.0 | 6.0 | 0.00 | 0.02 | 0.00 | 60 | 1018.0 |
| 20260506174537 | 68 | 258 | 0.0 | 4.0 | 0.00 | 0.02 | 0.00 | 60 | 1018.1 |
| 20260506173054 | 69 | 0 | 0.0 | 5.0 | 0.00 | 0.02 | 0.00 | 58 | 1018.0 |
| 20260506171536 | 68 | 291 | 1.0 | 6.0 | 0.00 | 0.02 | 0.00 | 58 | 1018.0 |
| 20260506170040 | 69 | 0 | 0.0 | 4.0 | 0.00 | 0.02 | 0.00 | 56 | 1018.0 |
| 20260506164535 | 69 | 0 | 1.0 | 5.0 | 0.00 | 0.02 | 0.00 | 58 | 1018.0 |
| 20260506163040 | 67 | 0 | 0.0 | 0.0 | 0.00 | 0.02 | 0.00 | 60 | 1018.1 |
| 20260506161535 | 67 | 0 | 0.0 | 5.0 | 0.00 | 0.02 | 0.00 | 64 | 1017.9 |
| 20260506160038 | 65 | 0 | 0.0 | 4.0 | 0.00 | 0.02 | 0.00 | 67 | 1018.1 |
| 20260506154537 | 64 | 0 | 0.0 | 6.0 | 0.00 | 0.02 | 0.00 | 70 | 1018.1 |
| 20260506153032 | 63 | 0 | 1.0 | 4.0 | 0.00 | 0.02 | 0.00 | 71 | 1018.2 |
| 20260506151539 | 62 | 77 | 1.0 | 3.0 | 0.00 | 0.02 | 0.00 | 71 | 1018.2 |
| 20260506150042 | 61 | 84 | 1.0 | 4.0 | 0.00 | 0.02 | 0.00 | 71 | 1018.1 |
| 20260506144539 | 60 | 0 | 2.0 | 3.0 | 0.00 | 0.02 | 0.00 | 71 | 1018.1 |
| 20260506143040 | 59 | 0 | 0.0 | 3.0 | 0.00 | 0.02 | 0.00 | 72 | 1018.0 |
| 20260506141534 | 57 | 79 | 1.0 | 3.0 | 0.00 | 0.02 | 0.00 | 75 | 1018.0 |
| 20260506140036 | 57 | 65 | 1.0 | 3.0 | 0.00 | 0.02 | 0.00 | 76 | 1018.0 |
| 20260506134535 | 56 | 88 | 1.0 | 2.0 | 0.00 | 0.02 | 0.00 | 79 | 1017.9 |
| 20260506133039 | 55 | 0 | 0.0 | 0.0 | 0.00 | 0.02 | 0.00 | 82 | 1017.8 |
| 20260506131545 | 54 | 0 | 0.0 | 0.0 | 0.00 | 0.02 | 0.00 | 84 | 1017.6 |
| 20260506130053 | 54 | 0 | 0.0 | 0.0 | 0.00 | 0.02 | 0.00 | 84 | 1017.4 |
| 20260506124535 | 54 | 0 | 0.0 | 1.0 | 0.00 | 0.02 | 0.00 | 84 | 1017.3 |
| 20260506123037 | 54 | 0 | 0.0 | 0.0 | 0.00 | 0.02 | 0.00 | 85 | 1017.2 |
| 20260506121539 | 54 | 0 | 0.0 | 0.0 | 0.00 | 0.02 | 0.00 | 84 | 1017.2 |
| 20260506120036 | 54 | 0 | 0.0 | 0.0 | 0.00 | 0.02 | 0.00 | 84 | 1017.2 |
| 20260506114535 | 55 | 0 | 0.0 | 0.0 | 0.00 | 0.02 | 0.00 | 85 | 1017.1 |
| 20260506113040 | 55 | 0 | 0.0 | 0.0 | 0.00 | 0.02 | 0.00 | 85 | 1016.9 |
| 20260506111535 | 56 | 0 | 0.0 | 0.0 | 0.00 | 0.02 | 0.00 | 85 | 1016.8 |
| 20260506110043 | 56 | 0 | 0.0 | 0.0 | 0.00 | 0.02 | 0.00 | 85 | 1016.8 |
| 20260506104538 | 56 | 0 | 0.0 | 0.0 | 0.00 | 0.02 | 0.00 | 85 | 1017.0 |
| 20260506103045 | 56 | 0 | 1.0 | 3.0 | 0.00 | 0.02 | 0.00 | 85 | 1017.0 |
| 20260506101548 | 57 | 94 | 0.0 | 1.0 | 0.00 | 0.02 | 0.00 | 87 | 1017.0 |
| 20260506100048 | 57 | 0 | 0.0 | 0.0 | 0.00 | 0.02 | 0.00 | 87 | 1016.9 |
| 20260506094536 | 57 | 0 | 0.0 | 0.0 | 0.00 | 0.12 | 0.00 | 87 | 1017.1 |
| 20260506093043 | 57 | 0 | 0.0 | 2.0 | 0.00 | 0.12 | 0.00 | 87 | 1017.1 |
| 20260506091539 | 57 | 0 | 0.0 | 0.0 | 0.00 | 0.12 | 0.00 | 89 | 1017.1 |
| 20260506090034 | 57 | 0 | 0.0 | 0.0 | 0.00 | 0.12 | 0.00 | 89 | 1017.4 |
| 20260506084549 | 56 | 0 | 0.0 | 0.0 | 0.00 | 0.12 | 0.00 | 90 | 1017.3 |
| 20260506083034 | 56 | 0 | 0.0 | 0.0 | 0.00 | 0.12 | 0.00 | 90 | 1017.4 |
| 20260506081545 | 56 | 0 | 0.0 | 0.0 | 0.00 | 0.12 | 0.00 | 89 | 1017.5 |
| 20260506073044 | 57 | 0 | 0.0 | 0.0 | 0.00 | 0.12 | 0.00 | 87 | 1017.5 |
| 20260506071541 | 57 | 0 | 0.0 | 0.0 | 0.00 | 0.12 | 0.00 | 87 | 1017.6 |
| 20260506061537 | 58 | 0 | 0.0 | 1.0 | 0.00 | 0.12 | 0.12 | 85 | 1017.2 |
| 20260506044625 | 60 | 0 | 0.0 | 1.0 | 0.00 | 0.12 | 0.12 | 79 | 1016.3 |
| 20260506043034 | 60 | 0 | 0.0 | 0.0 | 0.00 | 0.12 | 0.12 | 77 | 1016.1 |
| 20260506041536 | 61 | 0 | 0.0 | 0.0 | 0.00 | 0.12 | 0.12 | 76 | 1016.1 |
| 20260506040039 | 61 | 0 | 0.0 | 0.0 | 0.00 | 0.12 | 0.12 | 74 | 1015.8 |
| 20260506034602 | 62 | 0 | 0.0 | 0.0 | 0.00 | 0.12 | 0.12 | 73 | 1015.6 |
| 20260506033038 | 61 | 0 | 0.0 | 4.0 | 0.00 | 0.12 | 0.12 | 74 | 1015.4 |
| 20260506031540 | 62 | 0 | 0.0 | 0.0 | 0.00 | 0.12 | 0.12 | 73 | 1015.2 |
| 20260506030038 | 62 | 0 | 0.0 | 5.0 | 0.00 | 0.12 | 0.12 | 72 | 1015.0 |
| 20260506024535 | 63 | 0 | 1.0 | 5.0 | 0.00 | 0.12 | 0.12 | 69 | 1014.7 |
| 20260506023100 | 63 | 242 | 2.0 | 8.0 | 0.00 | 0.12 | 0.12 | 65 | 1014.4 |